Regional Weather Roundup
Issued by NWS

Home | Current Version | Previous Version | Text Only | Print | Product List | Glossary On
Versions: 1 2 3 4 5 6 7 8 9 10 11 12 13 14 15 16 17 18 19 20 21 22 23 24 25 26 27 28 29 30 31 32 33 34 35 36 37 38 39 40 41 42 43 44 45 46 47 48 49 50
000
ASCA42 TJSJ 070610
RWRPR
PUERTO RICO/U.S. VIRGIN ISLANDS HOURLY WEATHER ROUNDUP
NATIONAL WEATHER SERVICE SAN JUAN PR
200 AM AST SUN FEB 07 2016

PRZ001-004-070700-
PUERTO RICO

CITY           SKY/WX    TMP DP  RH WIND       PRES   REMARKS
SAN JUAN LMM   PTCLDY    73  70  88 CALM      30.05F
PONCE          CLEAR     73  68  83 CALM      30.01F
AGUADILLA      CLOUDY    73  70  88 CALM      30.05F
CEIBA          MOCLDY    72  72 100 CALM      30.07F
$$

PRZ006-007-070700-
U.S. VIRGIN ISLANDS

CITY           SKY/WX    TMP DP  RH WIND       PRES   REMARKS
CHARLOTTE AMA  CLOUDY    79  72  78 E16       30.04F
CHRISTIANSTED  CLOUDY    81  72  74 E14       30.05F
$$

HOURLY WEATHER ROUNDUP FOR THE NEWS MEDIA

CITY           SKY/WX    TMP DP  RH WIND       PRES   REMARKS
ORLANDO        CLOUDY    51  47  86 NW16      30.01F
NEW YORK       PTCLDY    35  25  66 W7        30.26F WCI  29
NEWARK         PTCLDY    32  22  66 SW6       30.25F WCI  26
CHICAGO        PTCLDY    34  29  82 S7        30.04F WCI  28
HARTFORD       PTCLDY    33  28  81 SW7       30.22F WCI  27
BOSTON         PTCLDY    30  24  78 SW13      30.20F WCI  20
DALLAS         CLEAR     40  34  79 CALM      30.35R
PHILADELPHIA   MOCLDY    33  26  75 S3        30.26F
LOS ANGELES    CLEAR     61  29  29 E5        30.16S
WASHINGTON DC  FAIR      28  20  71 CALM      30.23F


USA.gov is the U.S. government's official web portal to all federal, state and local government web resources and services.